Estación de Coihueco

Ultimos registro cada 15 minutos 39
Estación Fecha / Hora Temperatura Humedad Lluvia Velocidad Dirección Radiación Presion
39 Coihueco 04-05-2026 09:30 12,2 98,9 0 0 58 28,1 991,8
38 Coihueco 04-05-2026 09:15 12,2 99,3 0 0 58 43,1 991,8
37 Coihueco 04-05-2026 09:00 12,1 99,8 0 0 58 46,9 991,7
36 Coihueco 04-05-2026 08:45 12 100 0 0 58 24,4 991,6
35 Coihueco 04-05-2026 08:30 11,9 100 0,2 0 58 26,9 991,5
34 Coihueco 04-05-2026 08:15 11,8 100 0 0 58 18,1 991,3
33 Coihueco 04-05-2026 08:00 11,7 100 0 0 58 15,6 991,1
32 Coihueco 04-05-2026 07:45 11,7 100 0 0 58 1,9 991
31 Coihueco 04-05-2026 07:30 11,7 100 0 0 58 0,6 991
30 Coihueco 04-05-2026 07:15 11,7 99,8 0 0 58 0,6 991
29 Coihueco 04-05-2026 07:00 11,8 99,7 0 0 58 0,6 991,3
28 Coihueco 04-05-2026 06:45 11,8 99,6 0 0 58 0,6 991,1
27 Coihueco 04-05-2026 06:30 11,8 99,4 0 0 58 0,6 990,9
26 Coihueco 04-05-2026 06:15 11,8 99,3 0 0 58 0,6 990,9
25 Coihueco 04-05-2026 06:00 11,9 99 0 0 58 0,6 990,7
24 Coihueco 04-05-2026 05:45 11,9 98,6 0,2 0,5 66 0,6 990,7
23 Coihueco 04-05-2026 05:30 12 98,4 0 0,5 55 0,6 990,7
22 Coihueco 04-05-2026 05:15 12 97,3 0 0,5 53 0,6 990,7
21 Coihueco 04-05-2026 05:00 12,3 96,1 0 0 56 0,6 990,8
20 Coihueco 04-05-2026 04:45 12,3 94,1 0 0 94 0,6 990,6
19 Coihueco 04-05-2026 04:30 12,2 95,9 0 0 49 0,6 990,4
18 Coihueco 04-05-2026 04:15 12,1 96,9 0 0 0 0,6 990,4
17 Coihueco 04-05-2026 04:00 12,1 97,1 0 0 0 0,6 990,6
16 Coihueco 04-05-2026 03:45 12,2 96,2 0 0 0 0,6 990,8
15 Coihueco 04-05-2026 03:30 12,3 95,4 0 0 0 0,6 990,9
14 Coihueco 04-05-2026 03:15 12,3 94,7 0 0 0 0,6 990,9
13 Coihueco 04-05-2026 03:00 12,5 93 0 0 10 0,6 990,8
12 Coihueco 04-05-2026 02:45 12,5 93,4 0 0 49 0,6 990,6
11 Coihueco 04-05-2026 02:30 12,4 93,7 0 0 49 0,6 990,7
10 Coihueco 04-05-2026 02:15 12,4 94,3 0 0 49 0,6 990,9
9 Coihueco 04-05-2026 02:00 12,5 93,7 0 0 49 0,6 991,1
8 Coihueco 04-05-2026 01:45 12,7 92,2 0 0 49 0,6 991,6
7 Coihueco 04-05-2026 01:30 12,9 91,3 0 0 49 0,6 991,7
6 Coihueco 04-05-2026 01:15 13,1 89,8 0 0,5 49 0,6 991,7
5 Coihueco 04-05-2026 01:00 13,2 88,4 0 1 38 0,6 991,9
4 Coihueco 04-05-2026 00:45 13 88,9 0 1 29 0,6 992,1
3 Coihueco 04-05-2026 00:30 12,8 89,5 0 1,5 42 0,6 992
2 Coihueco 04-05-2026 00:15 12,8 90,9 0 1,5 49 0,6 991,9
1 Coihueco 04-05-2026 00:00 12,7 91,6 0 1,5 46 0,6 992,2